STARLINK-35913

Last updated on Fri Dec 19 2025 00:02:09 GMT+0000 (Coordinated Universal Time)

1 67004U 25293B 25351.83335648 -.00932001 27948-3 -21504-2 0 9998 2 67004 69.9938 309.0368 0004053 264.5457 113.7697 15.97007544 2386
UTC large
Height (km)
Speed (km/s)
/
Latitude / Longitude
Inclination (degrees)
Orbital Period (minutes)
Azimuth
Elevation
Range (km)
Doppler Factor

Next 0 passes for location: London (51.5072 / 0.1276)

Sorry there are no passes over London.